Wind_Speed
17 17 17 18 19 19 20 19 18 17 16 15 14 13 13 12 12 12 12 11 10 10 10 10 9 9 6 2 0 1 3 4 3 3 4 4 5 6 7 7 6 4 4
16 17 17 18 18 19 19 19 18 17 16 14 14 14 14 14 13 13 13 12 11 10 10 9 9 10 8 5 2 2 2 3 2 2 4 5 7 8 9 10 9 7 4
14 15 16 17 18 18 19 18 17 16 16 15 14 14 14 13 13 13 12 12 11 10 9 9 9 9 9 7 5 2 2 3 3 3 4 5 7 9 10 9 8 8 7
10 11 14 16 16 17 18 18 17 16 15 14 13 13 13 13 13 13 12 11 9 9 9 9 8 7 7 6 5 4 3 3 4 4 4 5 7 8 8 8 8 8 9
7 8 10 12 14 15 16 16 16 16 15 14 13 12 12 12 12 12 12 11 9 8 9 10 9 7 5 5 4 3 3 3 4 5 6 7 8 8 9 9 9 9 9
5 6 8 9 11 12 13 13 13 13 13 13 13 12 12 11 11 12 12 11 10 8 7 8 9 8 6 4 3 2 2 3 4 5 7 7 8 8 9 10 10 10 10
1 3 6 8 10 11 11 10 10 10 10 10 10 10 10 10 10 10 10 11 10 8 6 5 6 6 7 6 4 3 2 2 4 5 6 7 8 10 10 11 11 10 9
4 5 6 7 8 10 10 10 9 8 8 7 7 8 8 8 8 8 8 8 8 7 6 4 5 5 5 5 5 5 5 5 4 5 5 6 8 10 11 11 12 11 10
6 7 8 9 10 10 10 10 10 9 9 8 7 7 8 8 8 7 7 7 8 7 7 5 5 5 5 4 5 5 6 7 8 6 6 7 7 9 10 10 11 11 12
8 9 10 11 12 12 13 13 13 12 12 11 10 9 9 10 9 9 8 8 8 8 8 7 6 7 7 6 6 6 6 8 9 9 8 8 8 8 9 11 12 13 13
10 12 13 14 14 15 15 15 15 15 14 13 13 12 12 12 11 10 9 9 9 9 9 8 8 8 9 9 9 8 8 9 10 11 11 10 9 9 10 11 12 13 15
13 14 15 16 16 17 17 17 17 16 15 14 14 13 13 13 12 12 11 10 10 10 10 9 9 10 11 11 11 11 11 11 12 12 13 12 11 11 11 12 13 14 15
16 17 17 16 16 18 18 18 18 17 15 14 13 12 11 11 12 12 12 11 12 12 12 12 12 12 12 12 13 13 14 14 15 15 14 13 12 12 12 13 14 15 15
19 19 19 17 17 19 20 21 20 17 15 13 12 12 12 12 13 12 12 12 13 13 13 14 14 15 14 14 14 15 16 17 18 18 17 15 14 13 14 14 15 16 16
22 22 20 19 19 21 22 22 21 18 16 15 15 15 15 15 15 15 14 14 14 15 15 15 16 16 16 16 16 16 18 19 20 20 20 18 16 16 16 17 17 18 18
23 21 20 19 20 22 23 23 22 20 19 19 18 19 19 18 17 17 17 17 17 16 16 15 15 15 15 16 17 18 19 20 20 21 21 20 19 19 19 19 18 19 19
24 22 22 22 24 25 24 24 23 23 22 22 22 21 20 19 18 17 18 19 19 19 18 17 17 16 16 16 18 19 20 20 21 21 21 21 21 21 22 21 21 20 19
25 25 26 26 27 29 28 27 25 25 25 24 24 22 21 20 19 18 19 20 20 21 20 20 19 18 18 18 19 20 21 21 22 21 21 22 22 23 23 23 22 21 20
29 29 29 30 31 32 32 31 30 28 27 25 23 23 24 23 22 21 21 21 21 21 20 20 20 21 21 21 21 22 21 22 22 23 22 23 23 23 24 24 23 22 20
31 32 32 33 35 35 35 35 34 32 30 28 26 26 26 27 26 24 23 23 23 22 21 22 24 25 24 23 23 23 23 23 23 22 22 22 23 23 23 24 23 22 21
33 34 36 37 38 37 36 37 38 37 34 32 31 30 30 30 29 27 26 25 25 24 23 23 25 26 26 24 23 23 23 23 23 23 22 22 22 23 23 23 23 22 21
34 36 38 39 38 38 38 39 39 39 37 35 33 33 33 33 33 31 28 27 27 27 26 25 25 25 25 24 23 22 23 23 23 23 22 22 22 23 23 23 23 22 21
34 37 39 40 39 39 39 40 41 40 39 37 36 35 35 35 36 33 30 29 29 28 27 26 26 25 25 25 25 24 23 22 23 22 22 22 23 23 23 23 22 22 21
35 37 40 41 42 42 42 43 43 41 39 38 37 36 35 33 31 30 30 30 29 29 28 27 27 26 27 28 27 25 24 23 22 22 22 22 23 23 23 22 21 21 20
33 36 39 41 44 44 43 42 41 39 38 37 36 36 36 31 27 27 28 29 29 29 28 28 29 29 30 30 29 27 25 23 22 23 22 22 23 22 22 21 21 20 19
36 37 38 40 42 43 42 39 39 36 35 36 36 37 35 30 28 27 29 30 30 30 30 31 32 32 33 33 31 29 26 25 24 23 22 22 21 21 21 21 20 18 18
Wind_Direction
89 90 91 93 94 94 92 89 86 82 80 79 79 77 73 70 66 62 58 54 50 49 47 42 41 43 49 60 350 290 285 289 296 298 299 308 321 322 313 302 299 319 359
79 81 82 83 84 85 84 83 82 81 78 75 73 69 64 60 58 56 54 52 51 52 54 53 50 48 47 46 27 341 317 323 330 308 307 308 311 312 311 303 291 279 295
75 75 75 75 75 75 75 74 73 76 76 72 68 63 60 57 54 53 52 51 51 50 53 59 59 55 49 47 44 27 346 337 338 325 321 322 318 313 311 309 296 276 275
69 71 71 71 70 70 70 70 68 67 66 65 62 57 54 53 49 44 43 46 49 50 50 53 56 59 57 51 46 35 354 320 308 307 315 318 317 312 307 306 303 287 274
65 59 60 63 63 63 65 67 66 65 63 60 57 53 48 46 42 37 33 35 40 46 47 46 46 47 54 56 50 36 0 330 320 313 310 308 305 302 299 298 299 292 277
70 60 51 48 50 51 52 57 61 63 62 60 57 54 50 44 39 35 31 29 30 35 41 43 41 38 34 33 34 21 348 331 324 316 311 309 306 302 297 292 291 289 281
42 37 32 27 30 31 30 31 36 44 50 55 57 55 51 44 38 34 31 28 29 32 34 36 37 37 32 20 359 333 327 330 324 320 321 317 307 301 293 284 281 283 283
295 319 339 350 358 5 6 5 5 9 17 24 33 38 36 31 27 24 21 20 21 22 21 17 16 21 24 15 355 328 308 301 300 309 316 316 312 309 298 283 275 276 279
294 307 321 327 331 335 337 337 336 334 333 336 346 0 7 5 360 356 354 357 1 1 358 353 349 351 354 354 342 332 320 306 299 302 307 310 309 316 314 296 280 277 278
295 307 317 320 319 319 320 319 317 313 308 307 312 322 331 335 335 331 330 333 337 339 335 329 324 325 326 326 324 316 311 302 298 299 304 311 313 311 317 312 291 281 283
300 306 312 313 312 311 311 310 309 306 299 294 295 300 308 314 316 314 312 314 317 320 319 313 310 313 315 316 315 313 307 299 292 293 300 306 308 307 302 305 300 289 284
304 304 304 304 306 307 307 307 306 304 298 291 287 286 292 300 304 304 304 303 303 306 308 304 299 303 306 309 308 307 306 305 300 297 297 300 303 303 300 296 294 293 288
298 301 298 295 298 303 304 304 302 300 296 292 287 283 284 293 300 301 300 298 297 298 301 301 299 298 302 305 306 302 301 302 303 300 297 296 297 300 300 296 291 290 290
288 291 289 288 292 298 301 302 299 297 292 285 282 279 280 288 293 293 294 293 293 293 294 295 295 296 298 302 305 304 300 298 298 297 293 290 291 295 296 295 291 289 290
278 282 281 283 287 295 298 298 295 293 288 280 273 274 277 280 282 284 286 286 287 289 292 294 295 295 295 298 304 308 305 301 299 296 291 285 284 285 287 288 286 284 286
267 270 271 275 282 288 292 293 291 288 285 279 272 272 274 274 277 282 286 287 287 287 288 288 292 296 298 300 306 311 312 306 302 298 292 284 281 282 283 284 282 280 281
258 260 263 270 277 282 285 288 288 287 284 280 276 275 276 276 277 281 285 287 288 288 287 287 290 295 298 300 304 308 310 308 303 297 289 285 284 284 285 286 283 277 275
252 256 262 269 274 277 279 282 285 286 285 281 278 275 274 273 273 275 278 282 286 287 287 288 289 291 293 294 298 301 304 306 304 299 291 287 287 288 289 289 285 277 271
250 255 262 268 272 275 276 278 281 283 283 281 277 273 270 268 266 267 271 276 280 283 285 288 290 290 290 290 292 295 298 301 301 298 293 289 288 289 291 291 285 277 270
251 255 261 265 268 269 271 273 275 278 279 279 277 272 270 266 262 262 265 271 275 278 282 288 292 291 288 287 289 292 294 296 296 296 294 291 289 289 291 290 285 277 271
251 255 258 260 262 264 266 268 270 272 275 278 278 272 269 266 263 262 265 269 273 276 280 287 293 293 289 287 289 291 293 295 295 295 294 291 289 289 289 288 285 279 272
248 250 252 255 258 260 262 265 268 269 269 273 274 273 271 267 261 259 264 270 274 278 282 288 293 294 292 291 292 293 294 295 294 294 294 291 289 288 286 285 285 281 274
247 248 250 253 256 258 260 263 265 267 268 270 271 273 275 270 259 252 260 268 272 276 281 287 292 292 289 290 293 294 295 294 294 294 293 292 290 287 283 281 283 282 278
251 252 253 255 257 258 259 259 262 263 264 267 270 271 271 267 257 250 258 267 270 274 278 284 287 288 287 288 291 292 291 290 290 293 293 292 292 288 283 281 282 282 280
257 257 258 259 258 257 256 256 258 260 262 266 269 271 269 262 254 255 263 268 269 271 275 280 283 284 285 287 289 290 287 286 286 290 293 293 292 289 283 281 283 281 279
262 261 262 262 260 256 254 255 257 259 263 266 266 266 264 261 258 259 264 267 268 271 275 278 281 282 283 284 286 286 283 281 283 287 290 291 289 286 282 283 283 282 279
Height
5913 5912 5912 5912 5912 5911 5911 5911 5912 5913 5913 5913 5913 5913 5914 5914 5913 5913 5913 5912 5912 5911 5911 5911 5910 5909 5908 5908 5909 5909 5908 5908 5909 5909 5909 5909 5909 5908 5907 5907 5906 5905 5904
5917 5916 5915 5915 5914 5913 5913 5913 5914 5915 5916 5916 5916 5916 5916 5915 5915 5914 5914 5914 5913 5913 5912 5912 5911 5910 5909 5909 5909 5909 5909 5908 5908 5908 5908 5908 5908 5907 5906 5905 5905 5905 5904
5920 5919 5918 5917 5917 5916 5915 5915 5916 5917 5917 5918 5918 5918 5918 5917 5917 5916 5916 5915 5915 5914 5914 5913 5912 5911 5911 5910 5910 5909 5909 5908 5908 5908 5908 5907 5907 5906 5905 5904 5904 5904 5904
5922 5922 5921 5920 5919 5918 5918 5918 5918 5919 5919 5919 5920 5919 5919 5919 5919 5918 5917 5916 5916 5915 5914 5914 5912 5911 5911 5910 5910 5909 5909 5908 5908 5907 5907 5907 5906 5905 5904 5903 5903 5903 5903
5924 5924 5923 5922 5921 5921 5921 5921 5921 5921 5921 5921 5921 5921 5920 5920 5920 5919 5919 5918 5917 5916 5915 5914 5913 5912 5911 5910 5910 5909 5909 5908 5907 5907 5906 5905 5905 5904 5903 5903 5902 5902 5902
5926 5926 5925 5925 5924 5923 5923 5923 5923 5923 5923 5922 5922 5922 5922 5921 5921 5920 5919 5918 5917 5917 5916 5915 5914 5913 5911 5910 5909 5909 5908 5907 5906 5906 5905 5904 5903 5903 5902 5901 5901 5901 5900
5928 5927 5927 5926 5925 5925 5925 5925 5926 5925 5925 5924 5923 5923 5923 5922 5922 5921 5919 5918 5917 5917 5916 5915 5914 5913 5912 5911 5910 5908 5907 5906 5905 5905 5904 5903 5902 5901 5900 5899 5899 5899 5899
5928 5928 5928 5928 5927 5926 5926 5926 5926 5926 5926 5925 5924 5924 5923 5922 5922 5921 5920 5919 5917 5916 5916 5915 5914 5913 5912 5911 5910 5909 5907 5906 5904 5904 5903 5902 5901 5900 5898 5897 5897 5897 5897
5928 5928 5928 5928 5928 5927 5927 5926 5926 5926 5925 5925 5924 5924 5923 5922 5921 5920 5920 5919 5918 5917 5916 5914 5914 5913 5912 5910 5909 5908 5907 5905 5904 5902 5902 5901 5900 5899 5897 5896 5895 5895 5894
5927 5927 5927 5927 5927 5926 5926 5926 5925 5925 5924 5924 5923 5923 5922 5921 5920 5919 5919 5918 5918 5917 5916 5914 5913 5912 5912 5910 5909 5907 5906 5904 5903 5901 5900 5899 5898 5897 5896 5895 5893 5892 5892
5925 5926 5926 5926 5926 5925 5924 5924 5924 5923 5922 5922 5921 5921 5920 5919 5918 5917 5917 5916 5916 5915 5914 5913 5912 5911 5911 5910 5908 5907 5905 5904 5902 5900 5899 5898 5897 5896 5894 5893 5891 5890 5889
5923 5924 5924 5924 5924 5923 5922 5922 5921 5921 5920 5919 5919 5918 5918 5917 5916 5915 5914 5914 5913 5913 5912 5911 5911 5910 5909 5908 5907 5905 5904 5903 5901 5900 5898 5896 5895 5894 5893 5891 5889 5887 5885
5921 5921 5921 5921 5921 5920 5920 5919 5919 5918 5917 5917 5916 5915 5915 5914 5913 5912 5911 5911 5910 5910 5909 5909 5908 5908 5907 5907 5905 5904 5903 5901 5900 5898 5897 5895 5893 5891 5890 5888 5886 5884 5882
5918 5918 5918 5917 5917 5917 5917 5917 5916 5915 5915 5914 5913 5913 5912 5911 5910 5910 5909 5909 5908 5907 5906 5906 5905 5905 5904 5904 5903 5902 5900 5899 5897 5896 5894 5892 5890 5889 5887 5885 5883 5882 5880
5915 5915 5915 5914 5914 5914 5913 5913 5913 5912 5912 5911 5910 5909 5909 5909 5908 5907 5907 5906 5905 5904 5903 5903 5902 5901 5901 5900 5900 5898 5897 5895 5894 5892 5891 5889 5888 5886 5884 5882 5880 5878 5876
5911 5911 5911 5911 5911 5910 5910 5909 5909 5909 5908 5908 5907 5906 5905 5905 5905 5904 5904 5903 5902 5901 5900 5899 5899 5898 5897 5897 5896 5895 5893 5891 5890 5888 5887 5885 5884 5882 5880 5878 5876 5874 5873
5907 5907 5907 5907 5907 5907 5906 5906 5905 5905 5904 5903 5903 5902 5901 5901 5900 5900 5900 5899 5898 5898 5897 5896 5895 5894 5894 5893 5892 5890 5889 5887 5885 5884 5883 5881 5880 5878 5876 5874 5872 5870 5869
5902 5902 5903 5903 5902 5902 5901 5901 5900 5900 5899 5898 5898 5897 5897 5896 5896 5896 5895 5895 5894 5894 5893 5892 5891 5891 5890 5889 5887 5886 5884 5882 5880 5879 5878 5877 5875 5873 5871 5869 5867 5866 5865
5896 5897 5897 5897 5896 5896 5895 5895 5895 5894 5894 5893 5892 5892 5892 5892 5892 5892 5891 5891 5890 5889 5889 5888 5888 5887 5886 5885 5884 5881 5879 5877 5876 5874 5873 5872 5871 5869 5867 5864 5863 5861 5860
5891 5891 5891 5890 5889 5888 5888 5888 5888 5887 5887 5887 5887 5887 5887 5887 5887 5887 5887 5886 5886 5885 5884 5884 5883 5883 5882 5880 5879 5877 5875 5873 5872 5870 5869 5867 5866 5865 5863 5860 5858 5857 5856
5885 5884 5883 5882 5881 5881 5881 5881 5880 5880 5880 5881 5881 5881 5881 5882 5882 5881 5881 5881 5880 5879 5879 5879 5878 5877 5877 5875 5874 5872 5871 5869 5867 5865 5864 5863 5862 5860 5858 5856 5854 5852 5851
5876 5876 5874 5873 5873 5873 5873 5872 5872 5871 5872 5873 5874 5873 5874 5874 5875 5875 5874 5874 5873 5873 5873 5873 5872 5871 5871 5871 5870 5867 5865 5864 5862 5860 5859 5858 5857 5855 5854 5851 5850 5848 5847
5867 5866 5865 5865 5864 5864 5864 5863 5863 5863 5864 5865 5865 5866 5866 5865 5865 5866 5868 5867 5867 5866 5866 5866 5866 5865 5864 5865 5864 5863 5861 5859 5857 5856 5854 5853 5852 5850 5849 5847 5845 5844 5843
5858 5858 5857 5856 5856 5855 5854 5853 5853 5854 5855 5856 5857 5857 5857 5857 5857 5858 5860 5860 5860 5860 5860 5859 5859 5859 5858 5858 5858 5857 5856 5854 5852 5850 5849 5848 5846 5845 5843 5842 5841 5840 5838
5848 5848 5848 5847 5846 5845 5844 5843 5843 5844 5846 5847 5848 5849 5850 5851 5851 5851 5852 5852 5852 5853 5853 5853 5853 5852 5852 5851 5851 5850 5850 5849 5847 5846 5844 5843 5841 5840 5838 5837 5836 5835 5834
5838 5838 5838 5838 5837 5836 5835 5835 5835 5835 5837 5839 5840 5841 5842 5843 5843 5843 5843 5844 5845 5845 5845 5845 5845 5845 5845 5845 5844 5844 5843 5843 5842 5841 5839 5837 5836 5835 5834 5833 5831 5830 5830